Location: Unspecified
(49.2170°N, 0.0000°E)
Time: 08:15:05
(UTC+00:00)

Vanguard 3 - Pass Details

Date: 26 January 2021
Orbit: 508 x 3262 km, 33.4° (Epoch: 08 March)

Event Time Altitude Azimuth Distance (km) Brightness Sun altitude
Rises 06:01:58 0° 251° (WSW) 3,985 - -15.7°
Exits shadow 06:04:32 10° 241° (WSW) 3,361 9.8 -15.3°
Reaches altitude 10° 06:04:39 10° 241° (WSW) 3,338 9.8 -15.3°
Maximum altitude 06:12:07 31° 183° (S) 2,849 10.0 -14.1°
Drops below altitude 10° 06:23:46 10° 130° (SE) 5,278 12.4 -12.2°
Sets 06:29:22 0° 122° (ESE) 6,682 13.5 -11.3°
